Location: Oberstaufen
(47.5557°N, 10.0208°E)
Time: 00:00:56
(UTC+00:00)

Daily predictions for brighter satellites

Satellite Brightness Start Highest point End
(mag) Time Altitude Azimuth Time Altitude Azimuth Time Altitude Azimuth
SL-4 R/B 2.8 00:00:02 10° W 00:04:00 49° N 00:07:48 10° ENE
OPS 8737 4.1 00:02:25 10° NW 00:05:25 74° NE 00:06:00 53° ESE
Cosmos 1634 Rocket 4.2 00:01:02 10° NNW 00:07:12 60° W 00:10:18 30° SSW
Cosmos 2082 Rocket 4.3 00:04:16 10° N 00:08:56 25° NE 00:13:36 10° E
Timation 2 Rocket 4.4 00:08:49 27° SSE 00:11:39 45° ESE 00:17:18 10° NE
Cosmos 2278 Rocket 3.6 00:11:06 18° SE 00:13:56 27° ESE 00:18:34 10° NE
SJ 16-02 2.0 00:15:31 28° WSW 00:17:24 45° WNW 00:21:35 10° N
CZ-2C R/B 2.6 00:14:32 27° SSE 00:17:28 85° ENE 00:22:49 10° NNW
USA 229 DEB 4.3 00:12:59 10° NW 00:20:21 69° NE 00:28:26 10° SE
USA 229 4.3 00:13:05 10° NW 00:20:27 69° NE 00:28:32 10° SE
Cosmos 1943 Rocket 3.6 00:17:38 17° SE 00:20:28 26° ESE 00:24:58 10° NE
Cosmos 371 Rocket 3.2 00:19:30 35° SSW 00:21:35 89° WNW 00:26:27 10° NNE
Cosmos 2151 Rocket 3.9 00:17:53 10° N 00:22:17 64° ENE 00:24:39 26° SSE
CZ-2D R/B 4.4 00:20:17 10° NE 00:23:14 15° E 00:26:08 10° ESE
USA 307 3.6 00:20:42 12° W 00:24:04 47° NNW 00:27:55 10° NE
NOSS 2-1 (C) 4.3 00:21:01 10° WNW 00:24:26 33° SW 00:24:43 32° SW
Okean 2 Rocket 3.6 00:20:48 10° N 00:25:14 56° ENE 00:27:50 23° SSE
NOSS 2-1 (E) 4.2 00:24:39 10° WNW 00:28:08 34° SW 00:28:38 33° SW
Cosmos 1741 Rocket 4.0 00:26:35 31° SSW 00:29:13 84° WNW 00:34:34 10° NNE
Okean 1 Rocket 3.6 00:30:58 10° N 00:35:22 55° ENE 00:38:18 20° SSE
Cosmos 375 4.4 00:32:19 10° NW 00:36:51 81° NE 00:40:19 13° SE
Cosmos 1025 Rocket 3.6 00:37:03 25° SSE 00:39:11 48° E 00:43:17 10° NNE
Nadezhda 4 Rocket 4.0 00:38:07 25° S 00:41:58 82° E 00:48:15 10° N
Cosmos 1378 Rocket 3.6 00:40:25 33° SSW 00:42:18 73° W 00:46:43 10° N
SL-19 R/B 4.4 00:38:19 10° NNE 00:43:55 70° ESE 00:47:17 25° S
USA 234 3.3 00:38:42 10° NE 00:45:15 81° NNW 00:51:09 13° WSW
In-Cosmos 22 Rocket 4.2 00:44:33 26° S 00:47:49 89° WNW 00:53:36 10° NNE
Cosmos 1340 Rocket 2.6 00:46:39 10° NNW 00:50:29 72° W 00:52:07 33° S
ADEOS II 4.2 00:50:51 10° NE 00:54:30 19° E 00:58:08 10° SE
USA 59 Rocket 1.7 00:52:01 10° WNW 00:54:17 18° WSW 00:54:17 18° WSW
Cosmos 158 Rocket 4.0 00:50:11 10° NNW 00:55:19 77° ENE 00:59:59 12° SSE
Cosmos 1606 4.5 00:54:17 10° WNW 00:55:42 13° W 00:55:42 13° W
ATLAS 3B R/B 3.0 00:55:42 10° NW 01:03:31 66° WSW 01:10:57 10° SSE
MOZ.5/SAFIR/RUBIN 5/SL-8 3.8 01:03:05 15° SSE 01:06:55 76° ENE 01:11:31 10° N
H-2A R/B 3.5 01:06:39 22° WSW 01:07:20 23° W 01:10:18 10° NW
Cosmos 2026 Rocket 4.1 01:06:31 18° S 01:11:20 76° E 01:17:34 10° NNE
FENGYUN 3A 4.2 01:06:43 10° NNE 01:11:58 52° E 01:16:14 15° S
H-2A R/B 2.3 01:10:38 10° NNE 01:14:34 54° ESE 01:17:10 20° S
Cosmos 1869 4.0 01:13:55 10° NNW 01:17:16 33° W 01:18:36 25° SW
Cosmos 1814 Rocket 4.5 01:12:57 10° NW 01:17:59 43° WSW 01:21:14 20° SSW
USA 305 3.5 01:16:17 10° NW 01:18:12 22° NNE 01:19:30 10° ENE
IDEFIX/ARIANE 42P 2.6 01:13:14 10° NNE 01:18:30 87° WNW 01:22:10 20° SSW
SL-24 R/B - RUBIN 2 4.1 01:15:15 10° NW 01:19:47 39° WSW 01:22:27 20° S
ATLAS 2AS CENTAUR R/B 3.7 01:13:09 10° WSW 01:19:51 42° NW 01:26:23 10° NE
Cosmos 1455 Rocket 3.1 01:17:12 10° N 01:21:34 77° ENE 01:25:23 13° SSE
Cosmos 1833 Rocket 3.6 01:18:06 10° NW 01:22:57 31° WSW 01:25:45 20° SSW
Cosmos 2221 Rocket 4.0 01:21:45 23° SW 01:24:15 49° WNW 01:28:34 10° N
Cosmos 1812 2.1 01:25:29 10° N 01:28:40 86° W 01:30:43 20° S
MSX 3.8 01:24:16 10° NNE 01:30:01 79° WNW 01:34:26 18° SSW
NPP 3.7 01:28:29 10° NNE 01:33:54 78° WNW 01:38:05 17° SSW
CZ-2C R/B 4.4 01:30:04 10° N 01:34:45 30° WNW 01:38:34 13° WSW
Meteor 1-11 4.4 01:31:27 18° SSW 01:35:41 64° WNW 01:41:29 10° N
ATLAS 5 CENTAUR R/B 2.7 01:34:29 12° SSE 01:36:17 19° ESE 01:38:39 10° ENE
Cosmos 332 Rocket 4.2 01:37:42 18° SW 01:41:09 54° WNW 01:45:54 10° NNE
SL-4 R/B 2.7 01:38:30 10° WNW 01:42:24 52° NNE 01:46:06 10° E
Cosmos 2228 3.7 01:38:43 10° N 01:42:45 51° ENE 01:46:46 10° SSE
COSMOS 2406 3.7 01:38:18 10° NNW 01:44:03 67° ENE 01:49:46 10° SE
Resurs 1-4 Rocket 2.2 01:44:19 10° NNE 01:49:36 79° ESE 01:54:32 12° SSW
Cosmos 1486 Rocket 4.5 01:45:05 12° S 01:49:46 57° ESE 01:54:54 10° NNE
Cosmos 1666 2.4 01:49:38 18° SE 01:50:25 26° E 01:51:53 10° NNE
Cosmos 2082 Rocket 2.2 01:47:52 10° NNW 01:53:33 70° WSW 01:59:13 10° SSE
Meteor 1-27 4.4 01:51:06 10° N 01:56:58 87° E 02:02:48 10° S
Cosmos 2278 Rocket 2.6 01:52:55 14° SW 01:57:38 54° WNW 02:03:13 10° NNE
CZ-2C R/B 4.5 01:56:00 11° WSW 01:58:27 14° W 02:01:13 10° NW
Cosmos 2098 Rocket 2.4 01:56:54 10° NNW 02:00:43 73° W 02:03:57 10° S
Cosmos 1943 Rocket 2.6 01:59:08 13° SW 02:03:50 53° WNW 02:09:16 10° NNE
CZ-2D R/B 2.2 01:58:29 10° NNE 02:03:56 86° WNW 02:09:13 10° SSW
SL-16 R/B 3.3 01:58:53 10° SE 02:04:56 58° ENE 02:11:02 10° N
Cosmos 1656 Rocket 4.5 02:00:00 10° S 02:05:21 46° ESE 02:10:43 10° NE
Cosmos 1544 Rocket 3.8 02:01:14 10° N 02:05:33 70° E 02:09:48 10° SSE
ALOS 2.4 02:01:46 10° NNE 02:06:21 70° ESE 02:10:54 10° S
AQUA 4.3 02:16:38 10° NNE 02:21:17 61° E 02:25:56 10° S
Cosmos 1553 Rocket 4.1 02:17:25 10° NNW 02:23:20 56° W 02:29:15 10° SSW
S3M 4.3 02:18:48 10° N 02:25:14 80° E 02:31:38 10° SSE
Cosmos 1503 Rocket 4.2 02:21:18 10° SSW 02:26:33 76° ESE 02:31:47 10° NNE
USA 234 4.3 02:21:46 10° NE 02:27:51 44° NNW 02:33:57 10° W
NOAA 11 4.3 02:27:22 10° NNE 02:32:52 75° WNW 02:38:20 10° SSW
Cosmos 1975 Rocket 4.0 02:29:27 10° SW 02:33:31 34° WNW 02:37:36 10° N
Cosmos 2084 3.3 02:29:55 10° NW 02:33:54 86° NE 02:37:49 10° SE
Cosmos 2369 Rocket 3.1 02:28:57 10° S 02:34:22 46° ESE 02:39:48 10° NE
ADEOS II 2.2 02:29:21 10° N 02:34:32 66° WNW 02:39:43 10° SSW
Cosmos 2315 Rocket 4.3 02:32:02 10° N 02:38:21 75° E 02:44:40 10° SSE
Cosmos 2297 4.4 02:32:59 10° S 02:38:25 52° ESE 02:43:52 10° NE
Cosmos 773 Rocket 4.4 02:37:48 10° NW 02:42:43 43° WSW 02:47:38 10° S
